Погода в Кузьминском

Россия / Новгородская область     57°51′04″N   32°01′25″E
темп.,
°C
ветер,
м/с
пор.,
м/с
влажн.,
%
обл.,
%
осадки,
мм/ч
давл.,
гПа
погр.,
м
9 декабря, чт
чт900:00−16вюв119839 0.0 102714
03:00−16в119830 0.0 102722
06:00−16в119820 0.0 102730
09:00−16всв129828 0.0 102837
12:00−12в12895 0.0 1029108
15:00−11всв139231 0.0 102986
18:00−14в139718 0.0 102948
21:00−14в26946 0.0 103099
10 декабря, пт
пт1000:00−13вюв39915 0.0 1030176
03:00−13вюв310905 0.0 1030205
06:00−12вюв311885 0.0 1029237
09:00−11вюв414791 0.0 1029343
12:00−8вюв516713 0.0 1028455
15:00−6вюв5157046 0.0 1027488
18:00−5юв51572100 0.0 1026509
21:00−4юв5157894 0.0 1026507
11 декабря, сб
сб1100:00−4юв51681100 0.0 1026531
03:00−3юв51584100 0.0 1025549
06:00−3юв61686100 0.0 1025489
09:00−2юв51586100 0.0 1025511
12:00−1юв51483100 0.0 1026581
15:00−1юв5138489 0.0 1026483
18:00−2юв41385100 0.0 1026427
21:00−3юв41382100 0.0 1027407
12 декабря, вс
вс1200:00−4вюв4138275 0.0 1026405
03:00−4юв5138674 0.0 1026429
06:00−3юв41191100 0.0 1026359
09:000ююв41190100 0.0 1027416
12:000юв41091100 0.0 1027360
15:00+1ююв3992100 0.0 1027367
18:00+1ююв3993100 0.0 1028312
21:00+1ююв389499 0.0 1028273
13 декабря, пн
пн1300:000ююв3794100 0.0 1028219
03:00−3юв2596100 0.0 102897
06:00−3ююв1396100 0.0 102869
09:00−4юв1296100 0.0 102849
12:00−2ююв1188100 0.0 102870
15:00−2в119479 0.0 102715
18:00−4всв119792 0.0 102816
21:00−5всв119768 0.0 102832